Location: Unspecified
(40.7945°N, 0.0000°E)
Time: 09:14:08
(UTC+00:00)

Explorer 7 - Visible Passes

Search period start: 18 June 2021 00:00
Search period end: 28 June 2021 00:00
Orbit: 484 x 677 km, 50.3° (Epoch: 17 June)

Date Brightness Start Highest point End Pass type
(mag) Time Alt. Az. Time Alt. Az. Time Alt. Az.
18 Jun 9.2 01:28:35 10° NW 01:32:37 27° N 01:36:27 10° ENE visible
18 Jun 7.4 03:09:15 10° NW 03:13:48 67° NNE 03:18:02 10° ESE visible
18 Jun 7.5 20:29:00 10° SSW 20:33:38 44° SE 20:38:13 10° ENE visible
18 Jun 8.2 22:09:31 10° W 22:14:14 48° NNW 22:18:52 10° NE visible
18 Jun 9.3 23:51:37 10° WNW 23:55:39 26° N 23:59:32 10° NE visible
19 Jun 8.9 01:33:00 10° NW 01:37:13 32° NNE 01:41:13 10° E visible
19 Jun 6.9 03:13:37 10° WNW 03:18:10 82° SW 03:22:25 10° SE visible
19 Jun 7.2 20:33:02 10° SW 20:37:54 67° SE 20:42:42 10° ENE visible
19 Jun 8.7 22:14:12 10° W 22:18:45 37° NNW 22:23:11 10° NE visible
19 Jun 9.4 23:56:17 10° NW 00:00:17 25° N 00:04:08 10° ENE visible
20 Jun 8.5 01:37:21 10° NW 01:41:46 39° NNE 01:45:56 10° E visible
20 Jun 7.1 03:18:02 10° WNW 03:22:28 53° SW 03:26:35 10° SE visible
20 Jun 7.3 20:37:18 10° WSW 20:42:13 84° NW 20:47:06 10° NE visible
20 Jun 9.1 22:18:57 10° WNW 22:23:19 31° NNW 22:27:34 10° NE visible
21 Jun 9.3 00:00:52 10° NW 00:04:55 26° N 00:08:49 10° ENE visible
21 Jun 7.8 01:41:40 10° NW 01:46:16 52° NNE 01:50:34 10° ESE visible
21 Jun 7.6 03:22:36 10° WNW 03:26:40 33° SW 03:30:29 10° SSE visible
21 Jun 7.9 20:41:46 10° WSW 20:46:37 60° NNW 20:51:25 10° NE visible
21 Jun 9.3 22:23:43 10° WNW 22:27:55 28° N 22:32:00 10° NE visible
22 Jun 9.1 00:05:21 10° NW 00:09:32 29° NNE 00:13:33 10° ENE visible
22 Jun 7.2 01:46:00 10° NW 01:50:41 74° NNE 01:55:04 10° ESE visible
22 Jun 8.2 03:27:26 10° W 03:30:47 21° SW 03:33:59 10° S visible
22 Jun 8.5 20:46:22 10° W 20:51:05 45° NNW 20:55:44 10° NE visible
22 Jun 9.4 22:28:27 10° WNW 22:32:32 26° N 22:36:31 10° NE visible
23 Jun 8.7 00:09:44 10° NW 00:14:07 34° NNE 00:18:18 10° E visible
23 Jun 6.9 01:50:22 10° WNW 01:55:02 75° SW 01:59:25 10° SE visible
23 Jun 8.7 03:32:57 10° WSW 03:34:50 12° SW 03:36:40 10° SSW visible
23 Jun 8.9 20:51:04 10° W 20:55:36 36° NNW 21:00:04 10° NE visible
23 Jun 9.3 22:33:05 10° NW 22:37:10 26° N 22:41:09 10° ENE visible
24 Jun 8.2 00:14:05 10° NW 00:18:39 43° NNE 00:22:26 13° E visible
24 Jun 7.5 01:54:49 10° WNW 01:58:31 43° WSW 01:58:31 43° WSW visible
24 Jun 9.2 20:55:49 10° WNW 21:00:10 30° NNW 21:04:28 10° NE visible
24 Jun 9.2 22:37:38 10° NW 22:41:48 27° N 22:45:51 10° ENE visible
25 Jun 7.6 00:18:24 10° NW 00:23:08 57° NNE 00:24:25 41° E visible
25 Jun 9.0 01:59:24 10° WNW 02:00:35 16° W 02:00:35 16° W visible
25 Jun 9.3 21:00:34 10° WNW 21:04:46 27° N 21:08:55 10° NE visible
25 Jun 8.9 22:42:06 10° NW 22:46:24 31° NNE 22:50:35 10° ENE visible
26 Jun 7.2 00:22:44 10° NW 00:27:11 75° NNW 00:27:11 75° NNW visible
26 Jun 9.3 21:05:16 10° WNW 21:09:24 26° N 21:13:28 10° NE visible
26 Jun 8.6 22:46:29 10° NW 22:50:59 36° NNE 22:54:06 17° ENE visible
27 Jun 8.0 00:27:06 10° WNW 00:30:19 41° WNW 00:30:19 41° WNW visible
27 Jun 9.2 21:09:53 10° NW 21:14:02 26° N 21:18:06 10° ENE visible
27 Jun 8.1 22:50:48 10° NW 22:55:30 46° NNE 22:57:24 30° ENE visible
